Wendover, UT

5:56 PM MDT on May 26, 2017 (GMT -0600)
Wendover

Weather History for KENV - January, 2013

Change the Weather History Date:

Friday, January 4, 2013

  Actual Average Record
Temperature  
Mean Temperature 0 °F -  
Max Temperature 6 °F 29 °F 52 °F (1951)
Min Temperature -7 °F 15 °F -13 °F (1942)
Degree Days  
Heating Degree Days 66    
Moisture  
Dew Point -2 °F    
Average Humidity 88    
Maximum Humidity 100    
Minimum Humidity 71    
Precipitation  
Precipitation 0.00 in - - ()
Sea Level Pressure  
Sea Level Pressure 30.44 in    
Wind  
Wind Speed 3 mph (West)    
Max Wind Speed 7 mph    
Max Gust Speed -    
Visibility 8 miles    
Events      
Averages and records for this station are not official NWS values.
T = Trace of Precipitation, MM = Missing Value Source: NWS Daily Summary

Daily Weather History Graph

Daily Weather History Graph

Search for Another Location

Airport or City:

Trip Planner

Search our weather history database for the weather conditions in past years. The results will help you decide how hot, cold, wet, or windy it might be!

Date:

Astronomy

Jan. 04, 2013 Rise Set
Actual Time 8:00 AM MST 5:22 PM MST
Civil Twilight 7:29 AM MST 5:53 PM MST
Nautical Twilight 6:55 AM MST 6:27 PM MST
Astronomical Twilight 6:22 AM MST 7:00 PM MST
Moon 12:03 AM MST (1/4) 11:42 AM MST (1/4)
Length of Visible Light 10h 23m
Length of Day
9h 22m
Waning Gibbous, 54% of the Moon is Illuminated
Jan 4
Waning Gibbous
Jan 4
Last Quarter
Jan 11
New
Jan 18
First Quarter
Jan 26
Full

Hourly Weather History & Observations

Time (MST) Temp. Windchill Dew Point Humidity Pressure Visibility Wind Dir Wind Speed Gust Speed Precip Events Conditions
12:15 AM 5.0 °F -4.1 °F 1.4 °F 85% 30.45 in 10.0 mi South 4.6 mph - N/A   Overcast
12:35 AM 3.2 °F -6.2 °F 1.4 °F 92% 30.45 in 10.0 mi South 4.6 mph - N/A   Overcast
12:55 AM 3.2 °F -6.2 °F 1.4 °F 92% 30.44 in 10.0 mi SSW 4.6 mph - N/A   Overcast
1:15 AM 3.2 °F -6.2 °F 1.4 °F 92% 30.44 in 10.0 mi SW 4.6 mph - N/A   Overcast
1:35 AM 3.2 °F -7.8 °F -0.4 °F 85% 30.44 in 10.0 mi SW 5.8 mph - N/A   Overcast
1:55 AM 3.2 °F -9.1 °F 1.4 °F 92% 30.44 in 10.0 mi WSW 6.9 mph - N/A   Overcast
2:15 AM 3.2 °F -9.1 °F -0.4 °F 85% 30.44 in 10.0 mi WSW 6.9 mph - N/A   Overcast
2:35 AM 1.4 °F -9.9 °F -0.4 °F 92% 30.44 in 10.0 mi WSW 5.8 mph - N/A   Overcast
2:55 AM 1.4 °F -8.3 °F -0.4 °F 92% 30.45 in 10.0 mi WSW 4.6 mph - N/A   Overcast
3:15 AM 1.4 °F -8.3 °F 1.4 °F 100% 30.45 in 10.0 mi WSW 4.6 mph - N/A   Overcast
3:35 AM 1.4 °F -8.3 °F -0.4 °F 92% 30.45 in 10.0 mi WSW 4.6 mph - N/A   Overcast
3:55 AM 1.4 °F -6.2 °F -0.4 °F 92% 30.45 in 9.0 mi WSW 3.5 mph - N/A   Overcast
4:35 AM 1.4 °F - -0.4 °F 92% 30.45 in 2.0 mi Calm Calm - N/A   Overcast
4:55 AM 1.4 °F - 1.4 °F 100% 30.44 in 1.8 mi Calm Calm - N/A   Overcast
5:15 AM 1.4 °F - -2.2 °F 85% 30.45 in 1.5 mi Calm Calm - N/A   Overcast
5:35 AM 1.4 °F - -0.4 °F 92% 30.45 in 1.8 mi Calm Calm - N/A   Overcast
5:55 AM 1.4 °F -11.3 °F -2.2 °F 85% 30.45 in 3.0 mi WSW 6.9 mph - N/A   Overcast
6:15 AM -0.4 °F -13.4 °F -4.0 °F 85% 30.45 in 2.5 mi WSW 6.9 mph - N/A   Overcast
6:35 AM -0.4 °F -10.4 °F -2.2 °F 92% 30.45 in 6.0 mi WSW 4.6 mph - N/A   Overcast
6:55 AM -0.4 °F -10.4 °F -0.4 °F 100% 30.45 in 4.0 mi West 4.6 mph - N/A   Overcast
7:15 AM -0.4 °F -8.3 °F -5.8 °F 78% 30.45 in 2.5 mi West 3.5 mph - N/A   Overcast
7:35 AM 1.4 °F -8.3 °F -0.4 °F 92% 30.46 in 2.5 mi West 4.6 mph - N/A   Overcast
7:55 AM 1.4 °F -6.2 °F -2.2 °F 85% 30.46 in 1.8 mi West 3.5 mph - N/A   Overcast
8:15 AM 1.4 °F -6.2 °F -2.2 °F 85% 30.46 in 10.0 mi West 3.5 mph - N/A   Overcast
8:35 AM -0.4 °F -8.3 °F -2.2 °F 92% 30.46 in 10.0 mi West 3.5 mph - N/A   Overcast
8:55 AM -0.4 °F -8.3 °F -4.0 °F 85% 30.46 in 9.0 mi WNW 3.5 mph - N/A   Overcast
9:15 AM -0.4 °F -8.3 °F -4.0 °F 85% 30.47 in 7.0 mi WNW 3.5 mph - N/A   Overcast
9:35 AM -0.4 °F -8.3 °F -2.2 °F 92% 30.48 in 2.0 mi WNW 3.5 mph - N/A   Overcast
9:55 AM -0.4 °F - -2.2 °F 92% 30.48 in 5.0 mi Calm Calm - N/A   Overcast
10:15 AM -0.4 °F - -5.8 °F 78% 30.48 in 4.0 mi Calm Calm - N/A   Overcast
10:35 AM 1.4 °F - -0.4 °F 92% 30.48 in 4.0 mi Calm Calm - N/A   Overcast
10:55 AM 1.4 °F - -2.2 °F 85% 30.48 in 5.0 mi Calm Calm - N/A   Overcast
11:35 AM 1.4 °F - -2.2 °F 85% 30.47 in 0.5 mi Calm Calm - N/A   Overcast
11:55 AM 1.4 °F - -0.4 °F 92% 30.46 in 0.5 mi Calm Calm - N/A   Overcast
12:15 PM 1.4 °F - -2.2 °F 85% 30.46 in 1.5 mi Calm Calm - N/A   Overcast
12:35 PM 1.4 °F - -0.4 °F 92% 30.44 in 5.0 mi Calm Calm - N/A   Overcast
12:55 PM 3.2 °F - 1.4 °F 92% 30.44 in 5.0 mi Calm Calm - N/A   Overcast
1:15 PM 3.2 °F - -0.4 °F 85% 30.43 in 7.0 mi Calm Calm - N/A   Mostly Cloudy
1:35 PM 3.2 °F - 1.4 °F 92% 30.42 in 9.0 mi Calm Calm - N/A   Mostly Cloudy
1:55 PM 3.2 °F - -0.4 °F 85% 30.42 in 9.0 mi Calm Calm - N/A   Overcast
2:15 PM 3.2 °F - 1.4 °F 92% 30.42 in 10.0 mi Calm Calm - N/A   Overcast
2:35 PM 3.2 °F - 1.4 °F 92% 30.42 in 10.0 mi Calm Calm - N/A   Mostly Cloudy
2:55 PM 5.0 °F - -0.4 °F 78% 30.42 in 10.0 mi Calm Calm - N/A   Scattered Clouds
3:15 PM 5.0 °F - 3.2 °F 92% 30.42 in 10.0 mi Calm Calm - N/A   Clear
3:35 PM 6.8 °F - -0.4 °F 72% 30.41 in 10.0 mi Calm Calm - N/A   Clear
3:55 PM 5.0 °F - 1.4 °F 85% 30.42 in 10.0 mi Calm Calm - N/A   Clear
4:15 PM 5.0 °F - 1.4 °F 85% 30.42 in 10.0 mi Calm Calm - N/A   Clear
4:35 PM 5.0 °F - 1.4 °F 85% 30.42 in 9.0 mi Calm Calm - N/A   Clear
4:55 PM 3.2 °F -4.2 °F -0.4 °F 85% 30.42 in 10.0 mi ENE 3.5 mph - N/A   Clear
5:15 PM 1.4 °F -6.2 °F -2.2 °F 85% 30.42 in 10.0 mi NE 3.5 mph - N/A   Clear
5:35 PM -0.4 °F -10.4 °F -4.0 °F 85% 30.42 in 10.0 mi NE 4.6 mph - N/A   Clear
5:55 PM -0.4 °F -10.4 °F -4.0 °F 85% 30.42 in 10.0 mi NE 4.6 mph - N/A   Scattered Clouds
6:15 PM 1.4 °F - -0.4 °F 92% 30.42 in 10.0 mi Calm Calm - N/A   Mostly Cloudy
6:35 PM 1.4 °F - -2.2 °F 85% 30.42 in 10.0 mi Calm Calm - N/A   Scattered Clouds
6:55 PM 1.4 °F - -0.4 °F 92% 30.42 in 10.0 mi Calm Calm - N/A   Clear
7:15 PM -0.4 °F - -5.8 °F 78% 30.42 in 10.0 mi Calm Calm - N/A   Clear
7:35 PM -0.4 °F - -2.2 °F 92% 30.42 in 10.0 mi Calm Calm - N/A   Clear
7:55 PM -0.4 °F - -5.8 °F 78% 30.43 in 10.0 mi Calm Calm - N/A   Scattered Clouds
8:15 PM -0.4 °F - -2.2 °F 92% 30.43 in 10.0 mi Calm Calm - N/A   Scattered Clouds
8:35 PM -2.2 °F - -7.6 °F 78% 30.43 in 10.0 mi Calm Calm - N/A   Partly Cloudy
8:55 PM -2.2 °F - -2.2 °F 100% 30.43 in 10.0 mi Calm Calm - N/A   Clear
9:15 PM -4.0 °F - -11.2 °F 71% 30.43 in 10.0 mi Calm Calm - N/A   Clear
9:35 PM -5.8 °F - -5.8 °F 100% 30.43 in 10.0 mi Calm Calm - N/A   Clear
9:55 PM -5.8 °F - -11.2 °F 77% 30.43 in 10.0 mi Calm Calm - N/A   Clear
10:15 PM -4.0 °F - -5.8 °F 92% 30.43 in 10.0 mi Calm Calm - N/A   Clear
10:35 PM -4.0 °F - -9.4 °F 78% 30.43 in 10.0 mi Calm Calm - N/A   Clear
10:55 PM -4.0 °F - -5.8 °F 92% 30.42 in 10.0 mi Calm Calm - N/A   Clear
11:15 PM -7.6 °F - -14.8 °F 71% 30.43 in 10.0 mi Calm Calm - N/A   Clear
11:35 PM -5.8 °F - -5.8 °F 100% 30.43 in 10.0 mi Calm Calm - N/A   Clear
11:55 PM -7.6 °F - -14.8 °F 71% 30.43 in 10.0 mi Calm Calm - N/A   Clear